Regional Weather Roundup
Issued by NWS Charleston, SC

Current Version | Previous Version | Graphics & Text | Print | Product List | Glossary On
Versions: 1 2 3 4 5 6 7 8 9 10 11 12 13 14 15 16 17 18 19 20 21 22 23 24 25 26 27 28 29 30 31 32 33 34 35 36 37 38 39 40 41 42 43 44 45 46 47 48 49 50
000 ASUS42 KCHS 302227 RWRCHS REGIONAL WEATHER ROUNDUP NATIONAL WEATHER SERVICE CHARLESTON SC 600 PM EDT SUN AUG 30 2015 NOTE: "FAIR" INDICATES FEW OR NO CLOUDS BELOW 12,000 FEET WITH NO SIGNIFICANT WEATHER AND/OR OBSTRUCTIONS TO VISIBILITY. NOT ALL STATIONS ARE QUALITY CONTROLLED BY THE NATIONAL WEATHER SERVICE. USE DATA WITH CAUTION...ESPECIALLY DEWPOINT OBSERVATIONS. SCZ027-030-031-034>040-042>050-302300- ...SOUTHEAST SOUTH CAROLINA... CITY SKY/WX TMP DP RH WIND PRES REMARKS N CHARLESTON LGT RAIN 74 72 93 E13 30.07F WATERFRONT PRK N/A 76 74 93 E10 30.06F MOUNT PLEASANT LGT RAIN 73 73 100 E6 30.08F JOHNS ISLAND MOCLDY 77 75 94 E10 30.07F PINOPOLIS NOT AVBL MONCKS CORNER DRIZZLE 75 72 88 NE7 30.08F SUMMERVILLE MOCLDY 73 73 100 CALM 30.08S BEAUFORT MCAS RAIN 77 73 88 E10 30.06R BEAUFORT ARPT FAIR 77 77 100 E8 30.06R FOG HILTON HEAD IS RAIN 75 73 94 E9 30.07R WALTERBORO CLOUDY 77 73 88 CALM 30.08R ALLENDALE FAIR 77 72 83 SE6 30.07S ...SOUTHERN MIDLANDS AND PEE DEE... CITY SKY/WX TMP DP RH WIND PRES REMARKS GEORGETOWN NOT AVBL KINGSTREE NOT AVBL ORANGEBURG CLOUDY 76 72 87 E5 30.09R BARNWELL FAIR 77 73 88 SE8 30.08F AIKEN RAIN 72 68 88 E7G16 30.12R MANNING FAIR 73 73 100 CALM 30.10S COLUMBIA TSTM 73 70 90 E9 30.10R FOG SUMTER RAIN 72 70 94 E12 30.10R FOG FLORENCE CLOUDY 72 70 93 E8 30.12F MYRTLE BEACH LGT RAIN 77 72 83 CALM 30.14F FOG N MYRTLE BEACH LGT RAIN 77 73 87 E5 30.12S $$ GAZ063-065-086>088-099>101-113>116-118-119-134>141-150-302300- ...SOUTHEAST GEORGIA... CITY SKY/WX TMP DP RH WIND PRES REMARKS SAVANNAH ARPT CLOUDY 78 73 84 E10 30.06R HUNTER AAF CLOUDY 77 77 98 E13 30.03R FORT STEWART PTSUNNY 79 72 78 E8 30.03S STATESBORO CLOUDY 77 77 100 SE7 30.07R SYLVANIA CLOUDY 78 76 94 E6 30.09S CLAXTON NOT AVBL ...CSRA...CENTRAL AND FAR SOUTHEAST GEORGIA... CITY SKY/WX TMP DP RH WIND PRES REMARKS THOMSON CLOUDY 72 72 100 NE5 30.12F AUGUSTA-BUSH LGT RAIN 74 72 93 W5 30.09R AUGUSTA-DANIEL HVY RAIN 79 67 66 VRB5G18 30.11R VSB 1/4 SWAINSBORO CLOUDY N/A N/A N/A SE9 30.06F VIDALIA CLOUDY 77 72 83 E7 30.06R EASTMAN MOCLDY 80 73 79 E10 30.07R HAZLEHURST FAIR 83 75 78 E5 30.02S HX 90 ALMA MOSUNNY 83 74 74 E8 30.02R WAYCROSS MOSUNNY 87 78 75 E10 30.02R HX 99 JESUP CLOUDY 82 77 83 SE10G16 30.04R HX 91 BAXLEY CLOUDY 82 73 74 E8 30.03R BRUNSWICK CLOUDY 79 73 83 SE9G16 30.05R SAINT SIMONS CLOUDY 79 75 87 SE13 30.04R $$ SCZ027-028-034-036>038-045-046-048>050-GAZ119-141-302300- ...LAKE AND SUPPLEMENTAL COASTAL OBSERVATIONS... STATION/POSITION TIME TEMP WIND PRES WAVE SWELL AIR SEA DIR/SP/G HT/PER HT/PER/DIR (UTC) (F) (DEG/KT/KT) (MB) (FT/S) (FT/S/D) UPR LAKE MARION NOT AVBL WINYAH BAY 2100 76 210/ 3 1019.0 LAKE MURRAY 2100 74 10/ 2/ 4 1019.0F ACE BASIN NERRS NOT AVBL FORT PULASKI NOT AVBL SAPELO ISLAND 2200 76 110/ 7 1017.0S $$ ANZ835-935-AMZ111-154-330-350-352-354-370-450-454-472-302300- ...C-MAN AND BUOY OBSERVATIONS... STATION/POSITION TIME TEMP WIND PRES WAVE SWELL AIR SEA DIR/SP/G HT/PER HT/PER/DIR (UTC) (F) (DEG/KT/KT) (MB) (FT/S) (FT/S/D) BUOY 41004 2150 75 84 50/ 12/ 14 1019.7R 4/10 3/10 BUOY 41008 2150 79 84 120/ 17/ 21 1017.0F 6/10 3/110/10 FOLLY BEACH CMAN 2200 77 90/ 18/ 20 1018.4F CAPERS NEARSHORE NOT AVBL FRIPP NEARSHORE 2100 78 80/ 19/ 23 1017.4F STATION/POSITION TIME TEMP WIND PRES WAVE SWELL AIR SEA DIR/SP/G HT/PER HT/PER/DIR (UTC) (F) (DEG/KT/KT) (MB) (FT/S) (FT/S/D) 5E ST. MARYS GA 2121 85 N/A 5/11 2/110/11 FRYING PAN BUOY 2150 81 82 90/ 6/ 8 1020.6R 4/11 3/150/11 BUOY 41025 2150 79 81 10/ 2/ 4 1020.1R 3/11 3/110/11 CAPE LOOKOUT NC 2200 78 220/ 3/ 3 1019.8S BUOY 41002 2150 83 85 110/ 8/ 10 1020.0F 4/ 9 5/140/ 9 BUOY 41010 2120 84 86 150/ 14/ 16 1017.0F ST AUGUSTINE FL 2200 76 85 350/ 4/ 5 1017.1S $$

USA.gov is the U.S. government's official web portal to all federal, state and local government web resources and services.